CZ-6A DEB, 55557

Orbit data source: Space-Track

CZ-6A DEB, 55557 is space debris in SSO originally from a launch on Fri, 11 Nov 2022 UTC launched from the Taiyaun Space Center, China (TSC). Debris objects in space refer to the collection of defunct objects orbiting the Earth. Examples of debris include non-operational satellites, rocket bodies, and fragments generated from explosions, collisions, or faulty payload assembly.

Loading next visibility...
Identifier
55557, 2022-151ZF
Orbit
SSO
Country
Flag of CNCN / PRC
Related business
Manufacturer
SAST
Mission
Spacecraft
Bus & Motor
Unknown
Mass
Unknown
Launch date (UTC)
2022-11-11 (3 years ago)
Launch vehicle
Unknown
Launch site
Taiyaun Space Center, China (TSC)
Object type
Payload
Rocket body
Debris
Shape & HBR
Unknown shape, 0.1 m
Radar Cross Section
Small (<0.1 m²)

Expand to show TLE details & history
Last TLE update: 21 hours ago

TLE from 21 hours ago
0 CZ-6A DEB
1 55557U 22151ZF  26129.72118454  .00000947  00000-0  48365-3 0  9999
2 55557  98.7552 125.1770 0064956  98.0890 262.7660 14.16866905179453
Epoch: 2026-05-09T17:18Z
TLE epoch observation values (Epoch: 2026-05-09T17:18:30.344Z)
Latitude
-0.00006°
Longitude
-1.98398°
Altitude
845.078 km
Speed
7.427 km/s
True Right ascension
08h 20m 42s
True Declination
0° 00' 00"
Sunlit
Object was in daylight at epoch
Visualization orbit readout
Latitude
Unknown
Longitude
Unknown
Altitude
Unknown
Speed
Unknown
Apparent Right ascension
Unknown
Apparent Declination
Unknown
Sunlit
N/A
Visualization observer readout
Local Sidereal Time
22:09:14
Azimuth
Unknown
Elevation
Unknown
Doppler factor
Unknown
Orbital elements
Apogee altitude
879.975 km
Perigee altitude
786.291 km
Semi-major axis
7,211.27 km
Eccentricity
0.0065
Inclination
98.7552°
RAAN
125.177°
Arg. of periapsis
98.089°
True anomaly
262.02836°
Mean anomaly
262.766°
Eccentric anomaly
262.3971°
Mean motion
3.54426 °/min
Orbital period
101.57 mins
BSTAR
0.00048365
Loading maneuver chart data...
Computing Atmospheric mass density...
Loading historical data...
Loading historical data...
Loading historical data...
Loading historical data...
Loading historical data...
Loading historical data...
Loading historical data...

Documentation

Showing up to 5 results
|